Other Public Products
Issued by NWS Charleston, SC

Home | Current Version | Previous Version | Text Only | Print | Product List | Glossary On
Versions: 1 2 3 4 5 6 7 8 9 10 11 12 13 14 15 16 17 18 19 20 21 22 23 24 25 26 27 28 29 30 31 32 33 34 35 36 37 38 39 40 41 42 43 44 45 46 47 48 49 50
000
FPUS82 KCHS 250011
OPUCHS

TEST...KCHS/KSAV Gateway Observations...TEST
National Weather Service Charleston SC
700 PM EST FRI FEB 24 2017

NOTE: "fair" indicates few or no clouds below 12,000 feet with no
significant weather and/or obstructions to visibility.

SCZ050-WAZ558-NCZ071-TXZ119-213-PAZ071-DCZ001-FLZ074-172-MI076-
NYZ176-178-MAZ016-IL014-TNZ027-NJZ106-GAZ044-MD014-250100-
...Gateway Observations for Charleston International...

CITY           SKY/WX    TMP DP  RH WIND       PRES   REMARKS
Chas Airport   CLEAR     67  59  75 SE8       29.84S
6HR MIN TEMP:  67; 6HR MAX TEMP:  81;

Seattle        MOSUNNY   47  27  45 CALM      30.16S
6HR MIN TEMP:  39; 6HR MAX TEMP:  47;

Charlotte      PTCLDY    68  50  52 S5        29.82S
6HR MIN TEMP:  68; 6HR MAX TEMP:  78;

Dallas DFW     CLEAR     60  30  32 N17       29.92R
6HR MIN TEMP:  57; 6HR MAX TEMP:  64;

Dallas Love    CLEAR     60  30  32 NW15      29.93R
6HR MIN TEMP:  57; 6HR MAX TEMP:  63;

Philladelphia  PTCLDY    64  55  72 SE8       29.85S
6HR MIN TEMP:  64; 6HR MAX TEMP:  74;

Wash National  PTCLDY    68  56  65 SE15      29.81S
6HR MIN TEMP:  64; 6HR MAX TEMP:  77;

Baltimore      PTCLDY    65  57  75 SE13      29.81S
6HR MIN TEMP:  65; 6HR MAX TEMP:  74;

Miami          PTCLDY    75  65  70 VRB7      29.80R
6HR MIN TEMP:  75; 6HR MAX TEMP:  83;

Detroit        LGT RAIN  59  55  87 CALM      29.49S
6HR MIN TEMP:  58; 6HR MAX TEMP:  70; 6HR PCP:  0.05;

Newark         PTCLDY    65  53  65 S7        29.85R
6HR MIN TEMP:  65; 6HR MAX TEMP:  73;

Laguardia      PTCLDY    62  53  72 S13       29.86R
6HR MIN TEMP:  62; 6HR MAX TEMP:  70;

J F K          PTCLDY    53  53 100 S21       29.88S
6HR MIN TEMP:  53; 6HR MAX TEMP:  62;

Boston Logan   PTCLDY    59  52  77 S15       29.90R
6HR MIN TEMP:  58; 6HR MAX TEMP:  73;

Ft. Lauderdale MOCLDY    75  67  76 E5        29.79R
6HR MIN TEMP:  75; 6HR MAX TEMP:  84;

Chicago O`Hare DRIZZLE   39  37  92 W7        29.53R FOG     WCI  34
6HR MIN TEMP:  39; 6HR MAX TEMP:  40; 6HR PCP: TRACE;

Chicago Midway CLOUDY    44  39  82 W12G22    29.53R HAZE
6HR MIN TEMP:  39; 6HR MAX TEMP:  44; 6HR PCP: TRACE;

Houston Bush   CLEAR     76  32  20 NW14      29.80R
6HR MIN TEMP:  76; 6HR MAX TEMP:  84;

Houston Hobby  CLEAR     80  27  14 NW14      29.78R
6HR MIN TEMP:  76; 6HR MAX TEMP:  84;

Nashville      MOCLDY    75  50  41 SW13G22   29.65R
6HR MIN TEMP:  75; 6HR MAX TEMP:  81;

Atlanta        PTCLDY    73  53  49 S8        29.79S
6HR MIN TEMP:  73; 6HR MAX TEMP:  78;


$$

GAZ044-118-TXZ119-213-NCZ071-DCZ001-MDZ014-506-PAZ021-071-NJZ106-
NYZ176-178-MAZ106-OHZ011-021-055-MIZ076-KYZ091-ILZ014-INZ047-
MNZ060-ONZ431-250100-
...Gateway Observations for Savannah International...

CITY           SKY/WX    TMP DP  RH WIND       PRES   REMARKS
Savannah Arpt  PTCLDY    68  60  75 SE9       29.85R
6HR MIN TEMP:  68; 6HR MAX TEMP:  81;

Atlanta        PTCLDY    73  53  49 S8        29.79S
6HR MIN TEMP:  73; 6HR MAX TEMP:  78;

Charlotte      PTCLDY    68  50  52 S5        29.82S
6HR MIN TEMP:  68; 6HR MAX TEMP:  78;

Dallas DFW     CLEAR     60  30  32 N17       29.92R
6HR MIN TEMP:  57; 6HR MAX TEMP:  64;

Houston Bush   CLEAR     76  32  20 NW14      29.80R
6HR MIN TEMP:  76; 6HR MAX TEMP:  84;

Wash National  PTCLDY    68  56  65 SE15      29.81S
6HR MIN TEMP:  64; 6HR MAX TEMP:  77;

Wash Dulles    PTCLDY    69  50  50 S10       29.79S
6HR MIN TEMP:  69; 6HR MAX TEMP:  77;

Baltimore      PTCLDY    65  57  75 SE13      29.81S
6HR MIN TEMP:  65; 6HR MAX TEMP:  74;

Philadelphia   PTCLDY    64  55  72 SE8       29.85S
6HR MIN TEMP:  64; 6HR MAX TEMP:  74;

Newark         PTCLDY    65  53  65 S7        29.85R
6HR MIN TEMP:  65; 6HR MAX TEMP:  73;

Laguardia      PTCLDY    62  53  72 S13       29.86R
6HR MIN TEMP:  62; 6HR MAX TEMP:  70;

J F K          PTCLDY    53  53 100 S21       29.88S
6HR MIN TEMP:  53; 6HR MAX TEMP:  62;

Boston         PTCLDY    59  52  77 S15       29.90R
6HR MIN TEMP:  58; 6HR MAX TEMP:  73;

Pittsburg      MOCLDY    72  47  40 S3        29.62R
6HR MIN TEMP:  71; 6HR MAX TEMP:  76;

Akron          MOCLDY    65  48  54 S8        29.61S
6HR MIN TEMP:  64; 6HR MAX TEMP:  76;

Cleveland      CLOUDY    71  50  47 S12       29.58F
6HR MIN TEMP:  71; 6HR MAX TEMP:  77;

Cincinnati     CLOUDY    72  52  49 S15G23    29.53F
6HR MIN TEMP:  71; 6HR MAX TEMP:  78;

Columbus       MOCLDY    68  50  52 S7        29.56F
Detroit        LGT RAIN  59  55  87 CALM      29.49S
6HR MIN TEMP:  58; 6HR MAX TEMP:  70; 6HR PCP:  0.05;

Chicago O`Hare DRIZZLE   39  37  92 W7        29.53R FOG     WCI  34
6HR MIN TEMP:  39; 6HR MAX TEMP:  40; 6HR PCP: TRACE;

Minneapolis    CLOUDY    25  11  55 N21G28    29.85R WCI  11
6HR MIN TEMP:  25; 6HR MAX TEMP:  27;

Indianapolis   TSTM      57  53  86 W15       29.52R
6HR MIN TEMP:  60; 6HR MAX TEMP:  74; 6HR PCP:  0.02;

Toronto Canada LGT RAIN  41  39  93 S5        29.68  FOG

$$




USA.gov is the U.S. government's official web portal to all federal, state and local government web resources and services.